TimeEST,TemperatureF,Dew PointF,Humidity,Sea Level PressureIn,VisibilityMPH,Wind Direction,Wind SpeedMPH,Gust SpeedMPH,PrecipitationIn,Events,Conditions,WindDirDegrees,DateUTC
12:53 AM,43.0,41.0,93,29.79,4.0,East,17.3,-,0.15,Rain,Rain,80,2013-02-24 05:53:00
1:53 AM,43.0,42.1,97,29.76,5.0,East,18.4,29.9,0.17,Rain,Rain,80,2013-02-24 06:53:00
2:45 AM,44.6,42.8,93,29.70,4.0,East,21.9,27.6,0.08,Rain,Light Rain,80,2013-02-24 07:45:00
2:53 AM,44.1,42.1,93,29.69,6.0,East,20.7,31.1,0.09,Rain,Light Rain,80,2013-02-24 07:53:00
3:43 AM,44.6,42.8,93,29.65,3.0,East,21.9,36.8,0.03,Rain,Light Rain,90,2013-02-24 08:43:00
3:53 AM,45.0,43.0,93,29.65,3.0,East,21.9,34.5,0.05,Rain,Rain,90,2013-02-24 08:53:00
4:05 AM,44.6,42.8,93,29.64,2.5,East,23.0,34.5,0.01,Rain,Light Rain,90,2013-02-24 09:05:00
4:08 AM,44.6,42.8,93,29.64,3.0,East,25.3,33.4,0.01,Rain,Light Rain,90,2013-02-24 09:08:00
4:40 AM,44.6,42.8,93,29.64,2.5,East,21.9,31.1,0.03,Rain,Rain,80,2013-02-24 09:40:00
4:53 AM,45.0,43.0,93,29.63,2.5,East,20.7,33.4,0.05,Rain,Rain,80,2013-02-24 09:53:00
5:53 AM,45.0,43.0,93,29.61,2.5,ENE,19.6,29.9,0.11,Rain,Light Rain,70,2013-02-24 10:53:00
6:22 AM,44.6,42.8,93,29.60,1.8,ENE,20.7,28.8,0.09,Rain,Heavy Rain,60,2013-02-24 11:22:00
6:32 AM,44.6,42.8,93,29.60,2.0,ENE,20.7,-,0.11,Rain,Rain,70,2013-02-24 11:32:00
6:44 AM,44.6,42.8,93,29.59,1.2,ENE,16.1,27.6,0.12,Rain,Rain,60,2013-02-24 11:44:00
7:53 AM,44.1,43.0,96,29.60,0.8,NE,20.7,26.5,0.25,Rain,Heavy Rain,40,2013-02-24 12:53:00
8:53 AM,45.0,43.0,93,29.59,1.5,NNE,21.9,31.1,0.19,Rain,Light Rain,30,2013-02-24 13:53:00
9:01 AM,44.6,42.8,93,29.59,1.5,NNE,18.4,31.1,0.01,Rain,Light Rain,20,2013-02-24 14:01:00
9:53 AM,45.0,43.0,93,29.55,3.0,NE,20.7,29.9,0.04,Rain,Light Rain,50,2013-02-24 14:53:00
10:53 AM,45.0,43.0,93,29.53,3.0,NE,20.7,31.1,0.00,Rain,Light Rain,50,2013-02-24 15:53:00
11:53 AM,46.0,44.1,93,29.50,6.0,NE,19.6,26.5,0.01,Rain,Light Rain,40,2013-02-24 16:53:00
12:53 PM,46.0,44.1,93,29.49,2.0,NNE,11.5,25.3,0.01,Rain,Light Rain,30,2013-02-24 17:53:00
1:04 PM,46.4,44.6,93,29.50,1.8,NNE,19.6,26.5,0.00,Rain,Light Rain,20,2013-02-24 18:04:00
1:12 PM,46.4,44.6,93,29.50,2.5,North,15.0,26.5,0.00,Rain,Light Rain,350,2013-02-24 18:12:00
1:22 PM,44.6,42.8,93,29.51,2.0,NNW,18.4,-,0.01,,Overcast,340,2013-02-24 18:22:00
1:29 PM,42.8,41.0,93,29.51,1.5,North,19.6,28.8,0.02,,Overcast,350,2013-02-24 18:29:00
1:53 PM,43.0,41.0,93,29.52,1.5,North,23.0,29.9,0.03,,Overcast,350,2013-02-24 18:53:00
2:09 PM,42.8,41.0,93,29.53,2.5,North,21.9,26.5,0.00,Rain,Light Rain,350,2013-02-24 19:09:00
2:22 PM,42.8,39.2,87,29.53,3.0,North,25.3,36.8,0.01,Rain,Light Rain,360,2013-02-24 19:22:00
2:53 PM,42.1,39.0,89,29.54,4.0,North,23.0,32.2,0.04,Rain,Light Rain,360,2013-02-24 19:53:00
3:20 PM,41.0,39.2,93,29.54,7.0,North,26.5,39.1,0.01,Rain,Light Rain,10,2013-02-24 20:20:00
3:41 PM,41.0,39.2,93,29.57,10.0,North,27.6,36.8,0.01,,Overcast,360,2013-02-24 20:41:00
3:53 PM,41.0,37.9,89,29.58,9.0,North,27.6,43.7,0.02,,Overcast,360,2013-02-24 20:53:00
4:53 PM,37.9,36.0,93,29.61,7.0,North,21.9,29.9,0.00,Rain,Light Rain,10,2013-02-24 21:53:00
5:53 PM,37.9,36.0,93,29.65,10.0,North,19.6,-,0.00,,Overcast,360,2013-02-24 22:53:00
6:53 PM,37.9,36.0,93,29.68,3.0,North,17.3,25.3,0.00,Rain,Light Rain,360,2013-02-24 23:53:00
7:17 PM,37.4,35.6,93,29.70,5.0,North,15.0,-,0.01,Rain-Snow,Light Rain,360,2013-02-25 00:17:00
7:25 PM,37.4,35.6,93,29.70,6.0,North,16.1,-,0.02,Rain-Snow,Light Rain,10,2013-02-25 00:25:00
7:53 PM,37.0,35.1,93,29.72,5.0,North,18.4,-,0.03,Rain-Snow,Light Rain,10,2013-02-25 00:53:00
8:35 PM,33.8,33.8,100,29.74,2.5,NNW,13.8,-,0.04,Snow,Light Snow,340,2013-02-25 01:35:00
8:53 PM,34.0,33.1,96,29.75,2.5,NNW,12.7,-,0.05,Snow,Light Snow,340,2013-02-25 01:53:00
9:08 PM,33.8,33.8,100,29.75,3.0,NNW,16.1,-,0.00,Snow,Light Snow,340,2013-02-25 02:08:00
9:53 PM,35.1,33.1,92,29.77,4.0,NNW,15.0,-,0.02,Snow,Light Snow,340,2013-02-25 02:53:00
10:53 PM,34.0,33.1,96,29.79,3.0,NNW,13.8,-,0.02,Snow,Light Snow,330,2013-02-25 03:53:00
11:00 PM,33.8,33.8,100,29.79,2.5,NNW,13.8,-,0.00,Snow,Light Snow,330,2013-02-25 04:00:00
11:32 PM,35.6,33.8,93,29.80,4.0,NNW,16.1,24.2,0.01,Snow,Light Snow,340,2013-02-25 04:32:00
11:39 PM,35.6,33.8,93,29.80,5.0,NNW,18.4,26.5,0.01,Snow,Light Snow,340,2013-02-25 04:39:00
11:53 PM,35.1,33.1,92,29.81,4.0,NNW,18.4,26.5,0.02,Snow,Light Snow,340,2013-02-25 04:53:00